User: anonymous   Login
Location: Caltech
(34.1382°N, 118.1253°W)
Time: 01:17:48
(UTC-07:00)
Language:

Cosmos 1833 - Orbit

View from above orbital plane
View from above orbital plane
View from above satellite
View from above satellite

Ground track
Ground track

The orbit data is extracted from the following two-line orbital elements,

1 17589U 87027A   18114.78506209 -.00000126 +00000-0 -41412-4 0  9993
2 17589 070.9154 250.0001 0030187 196.4867 163.5276 14.12870118604087
Epoch (UTC): 24 April 2018 18:50:29
Eccentricity: 0.0030187
inclination: 70.9154°
perigee height: 828 km
apogee height: 871 km
right ascension of ascending node: 250.0001°
argument of perigee: 196.4867°
revolutions per day: 14.12870118
mean anomaly at epoch: 163.5276°
orbit number at epoch: 60408

The dashed part of the orbit path shows where the satellite is in the earth's shadow,  

DLR